When you browse on this site, cookies collect data to enhance your experience and personalize the content and advertising you see.
Visit our Privacy Policy to learn more. By continuing to use the site, you agree to this use of cookies and data.
  • In Sweden
  • List of Countries
  • For 7 days
  • Water Temperature
  • Satellite Maps
  • Weather Map
  • Weather Widgets
  • user-avatar
    Login

    Hourly Weather Tiba

    Today, 24 June, Monday

    Time Temperature Precipitation Wind Pressure Humidity
    00:00 +22°C° 0.1 mm 3 mps 755 mmHg 79%
    01:00 +22°C° 1 mm 3 mps 755 mmHg 81%
    02:00 +22°C° 1 mm 4 mps 754 mmHg 83%
    03:00 +21°C° 0 mm 4 mps 754 mmHg 82%
    04:00 +21°C° 3 mm 4 mps 755 mmHg 83%
    05:00 +21°C° 3 mm 5 mps 755 mmHg 84%
    06:00 +20°C° 3 mm 5 mps 755 mmHg 86%
    07:00 +20°C° 2.9 mm 6 mps 755 mmHg 85%
    08:00 +21°C° 2.9 mm 6 mps 754 mmHg 84%
    09:00 +21°C° 0 mm 6 mps 755 mmHg 83%
    10:00 +20°C° 2.6 mm 6 mps 755 mmHg 84%
    11:00 +20°C° 2.6 mm 6 mps 756 mmHg 85%
    12:00 +20°C° 2.6 mm 5 mps 756 mmHg 87%
    13:00 +20°C° 1.7 mm 5 mps 756 mmHg 85%
    14:00 +20°C° 1.7 mm 5 mps 756 mmHg 84%
    15:00 +20°C° 1.7 mm 4 mps 756 mmHg 83%
    16:00 +20°C° 0.1 mm 4 mps 757 mmHg 81%
    17:00 +21°C° 0.1 mm 3 mps 757 mmHg 80%
    18:00 +21°C° 0.1 mm 3 mps 758 mmHg 78%
    19:00 +21°C° 0.1 mm 3 mps 758 mmHg 79%
    20:00 +21°C° 0.1 mm 3 mps 759 mmHg 79%
    21:00 +20°C° 0.1 mm 2 mps 759 mmHg 80%
    22:00 +20°C° 0 mm 2 mps 759 mmHg 80%
    23:00 +21°C° 0 mm 1 mps 760 mmHg 79%

    Tomorrow, 25 June, Tuesday

    Time Temperature Precipitation Wind Pressure Humidity
    00:00 +21°C° 0 mm 1 mps 760 mmHg 79%
    01:00 +21°C° 0 mm 1 mps 760 mmHg 80%
    02:00 +19°C° 0 mm 0 mps 760 mmHg 81%
    03:00 +19°C° 0 mm 0 mps 760 mmHg 81%
    04:00 +21°C° 0 mm 1 mps 760 mmHg 80%
    05:00 +21°C° 0 mm 1 mps 761 mmHg 78%
    06:00 +22°C° 0 mm 1 mps 761 mmHg 77%
    07:00 +23°C° 0 mm 1 mps 761 mmHg 72%
    08:00 +24°C° 0 mm 1 mps 762 mmHg 68%
    09:00 +25°C° 0 mm 1 mps 762 mmHg 64%
    10:00 +26°C° 0 mm 1 mps 762 mmHg 59%
    11:00 +27°C° 0 mm 2 mps 762 mmHg 55%
    12:00 +29°C° 0 mm 2 mps 762 mmHg 50%
    13:00 +29°C° 0 mm 3 mps 761 mmHg 51%
    14:00 +28°C° 0 mm 3 mps 761 mmHg 51%
    15:00 +28°C° 0 mm 4 mps 761 mmHg 52%
    16:00 +28°C° 0 mm 4 mps 761 mmHg 56%
    17:00 +27°C° 0 mm 4 mps 761 mmHg 61%
    18:00 +26°C° 0 mm 4 mps 761 mmHg 65%
    19:00 +26°C° 0 mm 3 mps 761 mmHg 66%
    20:00 +25°C° 0 mm 3 mps 762 mmHg 70%
    21:00 +25°C° 0 mm 3 mps 762 mmHg 73%
    22:00 +25°C° 0 mm 3 mps 762 mmHg 75%
    23:00 +24°C° 0 mm 3 mps 762 mmHg 78%

    Day after tomorrow, 26 June, Wednesday

    Time Temperature Precipitation Wind Pressure Humidity
    00:00 +24°C° 0 mm 2 mps 762 mmHg 80%
    01:00 +24°C° 0 mm 2 mps 762 mmHg 82%
    02:00 +24°C° 0 mm 2 mps 761 mmHg 83%
    03:00 +23°C° 0 mm 2 mps 761 mmHg 85%
    04:00 +24°C° 0 mm 2 mps 761 mmHg 83%
    05:00 +24°C° 0 mm 2 mps 761 mmHg 81%
    06:00 +24°C° 0 mm 2 mps 761 mmHg 79%
    07:00 +26°C° 0 mm 2 mps 761 mmHg 71%
    08:00 +27°C° 0 mm 2 mps 761 mmHg 63%
    09:00 +29°C° 0 mm 2 mps 761 mmHg 55%
    10:00 +29°C° 0 mm 3 mps 761 mmHg 52%
    11:00 +30°C° 0 mm 4 mps 760 mmHg 49%
    12:00 +32°C° 0 mm 5 mps 760 mmHg 46%
    13:00 +30°C° 0 mm 5 mps 760 mmHg 46%
    14:00 +30°C° 0 mm 5 mps 759 mmHg 46%
    15:00 +30°C° 0 mm 6 mps 759 mmHg 46%
    16:00 +29°C° 0 mm 6 mps 759 mmHg 51%
    17:00 +29°C° 0 mm 6 mps 759 mmHg 55%
    18:00 +28°C° 0 mm 6 mps 759 mmHg 59%
    19:00 +27°C° 0 mm 6 mps 759 mmHg 62%
    20:00 +26°C° 0 mm 6 mps 759 mmHg 64%
    21:00 +26°C° 0 mm 6 mps 759 mmHg 67%
    22:00 +26°C° 0 mm 6 mps 759 mmHg 70%
    23:00 +24°C° 0 mm 6 mps 759 mmHg 72%

    27 June, Thursday

    Time Temperature Precipitation Wind Pressure Humidity
    00:00 +24°C° 0 mm 6 mps 758 mmHg 75%
    01:00 +25°C° 0 mm 5 mps 758 mmHg 77%
    02:00 +25°C° 0 mm 5 mps 758 mmHg 80%
    03:00 +25°C° 0 mm 5 mps 758 mmHg 82%
    04:00 +25°C° 0 mm 4 mps 758 mmHg 81%
    05:00 +26°C° 0 mm 4 mps 758 mmHg 81%
    06:00 +26°C° 0 mm 3 mps 758 mmHg 80%
    07:00 +27°C° 0 mm 3 mps 757 mmHg 74%
    08:00 +28°C° 0 mm 3 mps 757 mmHg 67%
    09:00 +29°C° 0 mm 3 mps 757 mmHg 61%
    10:00 +29°C° 0 mm 5 mps 757 mmHg 61%
    11:00 +29°C° 0 mm 6 mps 757 mmHg 61%
    12:00 +30°C° 0 mm 7 mps 757 mmHg 62%
    13:00 +29°C° 0.1 mm 7 mps 756 mmHg 67%
    14:00 +28°C° 0.1 mm 7 mps 756 mmHg 72%
    15:00 +27°C° 0.1 mm 8 mps 755 mmHg 77%
    16:00 +27°C° 0 mm 8 mps 755 mmHg 77%
    17:00 +27°C° 0 mm 8 mps 755 mmHg 76%
    18:00 +27°C° 0 mm 8 mps 755 mmHg 76%
    19:00 +27°C° 0 mm 8 mps 755 mmHg 76%
    20:00 +27°C° 0 mm 8 mps 755 mmHg 76%
    21:00 +27°C° 0 mm 8 mps 755 mmHg 76%
    22:00 +27°C° 0 mm 8 mps 754 mmHg 74%
    23:00 +27°C° 0 mm 8 mps 754 mmHg 72%

    28 June, Friday

    Time Temperature Precipitation Wind Pressure Humidity
    00:00 +27°C° 0 mm 8 mps 753 mmHg 70%
    01:00 +27°C° 0 mm 8 mps 753 mmHg 70%
    02:00 +27°C° 0 mm 8 mps 752 mmHg 69%
    03:00 +27°C° 0 mm 8 mps 752 mmHg 69%
    04:00 +27°C° 0.2 mm 8 mps 752 mmHg 73%
    05:00 +26°C° 0.2 mm 8 mps 752 mmHg 78%
    06:00 +26°C° 0.2 mm 8 mps 752 mmHg 82%
    07:00 +26°C° 0.2 mm 8 mps 752 mmHg 78%
    08:00 +27°C° 0.2 mm 8 mps 752 mmHg 73%
    09:00 +27°C° 0.2 mm 9 mps 752 mmHg 69%
    10:00 +26°C° 0.7 mm 8 mps 752 mmHg 72%
    11:00 +26°C° 0.7 mm 8 mps 751 mmHg 75%
    12:00 +26°C° 0.7 mm 7 mps 751 mmHg 79%
    13:00 +26°C° 1.3 mm 6 mps 750 mmHg 79%
    14:00 +26°C° 1.3 mm 5 mps 749 mmHg 80%
    15:00 +26°C° 1.3 mm 4 mps 747 mmHg 81%
    16:00 +26°C° 0.3 mm 3 mps 747 mmHg 81%
    17:00 +26°C° 0.3 mm 3 mps 747 mmHg 81%
    18:00 +26°C° 0.3 mm 3 mps 747 mmHg 82%
    19:00 +26°C° 0 mm 2 mps 747 mmHg 82%
    20:00 +26°C° 0 mm 1 mps 748 mmHg 82%
    21:00 +24°C° 0 mm 0 mps 749 mmHg 83%
    22:00 +25°C° 0 mm 1 mps 749 mmHg 83%
    23:00 +25°C° 0 mm 1 mps 749 mmHg 84%

    29 June, Saturday

    Time Temperature Precipitation Wind Pressure Humidity
    00:00 +25°C° 0 mm 2 mps 749 mmHg 85%
    01:00 +25°C° 0 mm 1 mps 749 mmHg 85%
    02:00 +25°C° 0 mm 1 mps 749 mmHg 86%
    03:00 +23°C° 0 mm 0 mps 749 mmHg 86%
    04:00 +25°C° 0 mm 1 mps 750 mmHg 84%
    05:00 +25°C° 0 mm 1 mps 750 mmHg 82%
    06:00 +26°C° 0 mm 1 mps 750 mmHg 81%
    07:00 +27°C° 0 mm 2 mps 750 mmHg 75%
    08:00 +28°C° 0 mm 2 mps 751 mmHg 69%
    09:00 +29°C° 0 mm 3 mps 751 mmHg 63%
    10:00 +30°C° 0 mm 3 mps 751 mmHg 61%
    11:00 +30°C° 0 mm 4 mps 751 mmHg 59%
    12:00 +30°C° 0 mm 4 mps 751 mmHg 57%
    13:00 +30°C° 0 mm 5 mps 751 mmHg 59%
    14:00 +29°C° 0 mm 5 mps 751 mmHg 60%
    15:00 +29°C° 0 mm 5 mps 751 mmHg 61%
    16:00 +28°C° 0 mm 5 mps 751 mmHg 64%
    17:00 +27°C° 0 mm 5 mps 751 mmHg 68%
    18:00 +26°C° 0 mm 5 mps 751 mmHg 71%
    19:00 +25°C° 0.2 mm 5 mps 752 mmHg 73%
    20:00 +25°C° 0.2 mm 5 mps 752 mmHg 76%
    21:00 +23°C° 0.2 mm 4 mps 753 mmHg 78%
    22:00 +23°C° 0.4 mm 4 mps 753 mmHg 80%
    23:00 +23°C° 0.4 mm 4 mps 752 mmHg 82%
    Show more